Weather History for Chattanooga, TN

Change the Weather History Date:

Friday, July 26, 2013

  Actual Average Record
Temperature  
Mean Temperature 77 °F 80 °F  
Max Temperature 89 °F 90 °F 103 °F (1993)
Min Temperature 65 °F 70 °F 58 °F (1911)
Degree Days  
Heating Degree Days 0 0  
Month to date heating degree days 0 0  
Since 1 June heating degree days 0 2  
Since 1 July heating degree days 0 0  
Cooling Degree Days 12 15  
Month to date cooling degree days 349 386  
Year to date cooling degree days 924 927  
Since 1 June cooling degree days 748 731  
Growing Degree Days 26 (Base 50)    
Moisture  
Dew Point 65 °F    
Average Humidity 67    
Maximum Humidity 87    
Minimum Humidity 46    
Precipitation  
Precipitation 0.00 in 0.15 in 2.89 in (1950)
Month to date precipitation 7.78 4.17  
Year to date precipitation 46.92 31.04  
Snow  
Snow 0.00 in 0.00 in - ()
Month to date snowfall 0.0 0.0  
Since 1 June snowfall 0.0 0.0  
Since 1 July snowfall 0.0 0.0  
Snow Depth 0.00 in    
Sea Level Pressure  
Sea Level Pressure 30.02 in    
Wind  
Wind Speed 4 mph (WNW)    
Max Wind Speed 12 mph    
Max Gust Speed 15 mph    
Visibility 10 miles    
Events      
T = Trace of Precipitation, MM = Missing Value Source: NWS Daily Summary

Daily Weather History Graph

Daily Weather History Graph

Search for Another Location

Airport:

Trip Planner

Search our weather history database for the weather conditions in past years. The results will help you decide how hot, cold, wet, or windy it might be!

Date:

Astronomy

Jul. 26, 2013 Rise Set
Actual Time 6:45 AM EDT 8:48 PM EDT
Civil Twilight 6:17 AM EDT 9:16 PM EDT
Nautical Twilight 5:43 AM EDT 9:50 PM EDT
Astronomical Twilight 5:06 AM EDT 10:27 PM EDT
Moon 11:16 PM EDT (7/26) 11:08 AM EDT (7/26)
Length of Visible Light 14h 58m
Length of Day
14h 02m
Waning Gibbous, 80% of the Moon is Illuminated
Jul 26
Waning Gibbous
Jul 29
Last Quarter
Aug 6
New
Aug 14
First Quarter
Aug 20
Full

Hourly Weather History & Observations

Time (EDT) Temp. Heat Index Dew Point Humidity Pressure Visibility Wind Dir Wind Speed Gust Speed Precip Events Conditions
12:53 AM 73.0 °F - 63.0 °F 71% 30.02 in 10.0 mi North 5.8 mph - N/A   Clear
1:53 AM 72.0 °F - 62.1 °F 71% 30.02 in 10.0 mi North 4.6 mph - N/A   Clear
2:53 AM 71.1 °F - 62.1 °F 73% 30.01 in 10.0 mi North 5.8 mph - N/A   Clear
3:53 AM 70.0 °F - 61.0 °F 73% 30.01 in 10.0 mi North 5.8 mph - N/A   Clear
4:53 AM 66.9 °F - 62.1 °F 84% 30.01 in 10.0 mi Calm Calm - N/A   Clear
5:53 AM 66.9 °F - 62.1 °F 84% 30.03 in 10.0 mi Calm Calm - N/A   Clear
6:53 AM 66.0 °F - 62.1 °F 87% 30.05 in 9.0 mi West 3.5 mph - N/A   Scattered Clouds
7:53 AM 68.0 °F - 63.0 °F 84% 30.04 in 10.0 mi Calm Calm - N/A   Scattered Clouds
8:24 AM 69.8 °F - 62.6 °F 78% 30.08 in 10.0 mi Calm Calm - N/A   Mostly Cloudy
8:53 AM 71.1 °F - 63.0 °F 75% 30.06 in 10.0 mi North 4.6 mph - N/A   Mostly Cloudy
9:53 AM 73.9 °F - 64.9 °F 73% 30.08 in 10.0 mi North 4.6 mph - N/A   Mostly Cloudy
10:53 AM 75.9 °F - 64.0 °F 67% 30.06 in 10.0 mi North 5.8 mph - N/A   Mostly Cloudy
11:53 AM 77.0 °F - 66.0 °F 69% 30.06 in 10.0 mi Calm Calm - N/A   Mostly Cloudy
12:33 PM 78.8 °F - 68.0 °F 69% 30.08 in 10.0 mi Variable 5.8 mph - N/A   Mostly Cloudy
12:53 PM 80.1 °F 82.9 °F 69.1 °F 69% 30.05 in 10.0 mi South 4.6 mph - N/A   Mostly Cloudy
1:53 PM 82.9 °F 86.5 °F 69.1 °F 63% 30.03 in 10.0 mi SSE 5.8 mph - N/A   Mostly Cloudy
2:53 PM 84.9 °F 87.6 °F 66.9 °F 55% 30.01 in 10.0 mi SW 8.1 mph - N/A   Mostly Cloudy
3:53 PM 87.1 °F 88.3 °F 64.0 °F 46% 29.99 in 10.0 mi South 8.1 mph - N/A   Mostly Cloudy
4:31 PM 87.8 °F 88.5 °F 62.6 °F 43% 30.01 in 10.0 mi South 8.1 mph - N/A   Mostly Cloudy
4:53 PM 88.0 °F 89.6 °F 64.9 °F 46% 29.98 in 10.0 mi SW 9.2 mph - N/A   Mostly Cloudy
5:53 PM 87.1 °F 89.2 °F 66.0 °F 49% 29.97 in 10.0 mi WSW 6.9 mph - N/A   Mostly Cloudy
6:53 PM 86.0 °F 88.2 °F 66.0 °F 51% 29.97 in 10.0 mi West 9.2 mph - N/A   Mostly Cloudy
7:53 PM 84.0 °F 86.3 °F 66.0 °F 55% 29.97 in 10.0 mi WNW 3.5 mph - N/A   Scattered Clouds
8:53 PM 82.0 °F 84.1 °F 66.0 °F 58% 29.98 in 10.0 mi Calm Calm - N/A   Mostly Cloudy
9:53 PM 77.0 °F - 69.1 °F 76% 29.99 in 10.0 mi Calm Calm - N/A   Mostly Cloudy
10:53 PM 75.9 °F - 68.0 °F 76% 29.99 in 10.0 mi Calm Calm - N/A   Mostly Cloudy
11:53 PM 75.9 °F - 68.0 °F 76% 29.99 in 10.0 mi Calm Calm - N/A   Mostly Cloudy